PGT69MM LTAC-LTFJ

Flight info

Callsign PGT69MM
Flight time 0h 37m
Altitude 28000
Route DEREL1D/21R DEREL T79 NAMAN
Aircraft A320/M-SDE3FGHIRWY/LB1

Departure

Time 2026-05-06 15:56
Airport Esenboğa International Airport (LTAC)

Arrival

Time 2026-05-06 16:34
Airport Istanbul Sabiha Gökçen International Airport (LTFJ)
Time Latitude Longitude Altitude Speed Heading
2026-05-06 15:38 40.11491 32.98955 3113 ft 0 kts 131°
2026-05-06 15:42 40.11492 32.98953 3113 ft 2 kts 131°
2026-05-06 15:43 40.11509 32.98927 3113 ft 4 kts 131°
2026-05-06 15:43 40.11523 32.98905 3113 ft 4 kts 112°
2026-05-06 15:43 40.11524 32.98877 3113 ft 4 kts 53°
2026-05-06 15:43 40.11511 32.98859 3113 ft 0 kts 39°
2026-05-06 15:47 40.11514 32.98862 3113 ft 3 kts 39°
2026-05-06 15:47 40.11537 32.98887 3113 ft 7 kts 41°
2026-05-06 15:48 40.11579 32.98937 3113 ft 8 kts 42°
2026-05-06 15:48 40.11628 32.98935 3113 ft 11 kts 327°
2026-05-06 15:48 40.11690 32.98894 3113 ft 10 kts 17°
2026-05-06 15:48 40.11748 32.98948 3113 ft 13 kts 36°
2026-05-06 15:49 40.11822 32.99019 3113 ft 12 kts 36°
2026-05-06 15:49 40.11886 32.99080 3114 ft 12 kts 36°
2026-05-06 15:49 40.11962 32.99154 3115 ft 13 kts 37°
2026-05-06 15:49 40.12025 32.99215 3116 ft 10 kts 37°
2026-05-06 15:50 40.12087 32.99274 3117 ft 14 kts 36°
2026-05-06 15:50 40.12188 32.99369 3118 ft 20 kts 36°
2026-05-06 15:50 40.12298 32.99476 3119 ft 19 kts 36°
2026-05-06 15:50 40.12400 32.99574 3120 ft 19 kts 36°
2026-05-06 15:51 40.12517 32.99686 3122 ft 20 kts 36°
2026-05-06 15:51 40.12630 32.99790 3123 ft 19 kts 36°
2026-05-06 15:51 40.12733 32.99889 3123 ft 17 kts 36°
2026-05-06 15:51 40.12838 32.99990 3124 ft 24 kts 36°
2026-05-06 15:52 40.12933 33.00081 3123 ft 26 kts 36°
2026-05-06 15:52 40.13079 33.00220 3126 ft 27 kts 36°
2026-05-06 15:52 40.13246 33.00380 3126 ft 31 kts 36°
2026-05-06 15:52 40.13410 33.00537 3128 ft 29 kts 36°
2026-05-06 15:53 40.13571 33.00691 3132 ft 29 kts 36°
2026-05-06 15:53 40.13732 33.00845 3133 ft 28 kts 36°
2026-05-06 15:53 40.13874 33.00980 3135 ft 20 kts 36°
2026-05-06 15:53 40.13970 33.01067 3136 ft 14 kts 26°
2026-05-06 15:54 40.14051 33.01066 3136 ft 10 kts 336°
2026-05-06 15:54 40.14079 33.01037 3136 ft 4 kts 316°
2026-05-06 15:54 40.14092 33.01015 3136 ft 3 kts 300°
2026-05-06 15:54 40.14108 33.00955 3136 ft 12 kts 290°
2026-05-06 15:55 40.14157 33.00857 3136 ft 14 kts 306°
2026-05-06 15:55 40.14211 33.00749 3136 ft 15 kts 294°
2026-05-06 15:55 40.14167 33.00647 3135 ft 15 kts 214°
2026-05-06 15:55 40.14080 33.00564 3135 ft 18 kts 217°
2026-05-06 15:56 40.13838 33.00332 3132 ft 78 kts 216°
2026-05-06 15:56 40.13229 32.99751 3127 ft 136 kts 216°
2026-05-06 15:56 40.12336 32.98899 3204 ft 175 kts 218°
2026-05-06 15:56 40.11354 32.97960 3950 ft 175 kts 217°
2026-05-06 15:57 40.10374 32.97035 4771 ft 173 kts 217°
2026-05-06 15:57 40.09370 32.96088 5218 ft 187 kts 217°
2026-05-06 15:57 40.08249 32.95030 5469 ft 211 kts 217°
2026-05-06 15:57 40.06991 32.93845 5807 ft 235 kts 217°
2026-05-06 15:58 40.05633 32.92566 6491 ft 244 kts 217°
2026-05-06 15:58 40.04243 32.91254 7277 ft 248 kts 218°
2026-05-06 15:58 40.02848 32.89904 8089 ft 252 kts 223°
2026-05-06 15:58 40.01912 32.88027 8843 ft 256 kts 256°
2026-05-06 15:59 40.01961 32.85676 9339 ft 273 kts 290°
2026-05-06 15:59 40.02870 32.83440 9952 ft 285 kts 303°
2026-05-06 15:59 40.04080 32.81293 10338 ft 305 kts 308°
2026-05-06 15:59 40.05474 32.79060 10567 ft 329 kts 309°
2026-05-06 16:00 40.06971 32.76698 10970 ft 344 kts 309°
2026-05-06 16:00 40.08487 32.74252 11645 ft 349 kts 308°
2026-05-06 16:00 40.09988 32.71749 12388 ft 352 kts 308°
2026-05-06 16:00 40.11476 32.69191 13130 ft 355 kts 307°
2026-05-06 16:01 40.12958 32.66594 13862 ft 358 kts 307°
2026-05-06 16:01 40.14446 32.63959 14479 ft 362 kts 307°
2026-05-06 16:01 40.15947 32.61299 15127 ft 365 kts 308°
2026-05-06 16:01 40.17498 32.58678 15812 ft 366 kts 309°
2026-05-06 16:02 40.19118 32.56091 16420 ft 369 kts 310°
2026-05-06 16:02 40.20781 32.53517 17047 ft 372 kts 311°
2026-05-06 16:02 40.22467 32.50932 17663 ft 374 kts 311°
2026-05-06 16:02 40.24161 32.48325 18294 ft 377 kts 311°
2026-05-06 16:03 40.25857 32.45691 18826 ft 379 kts 311°
2026-05-06 16:03 40.27553 32.43034 19374 ft 381 kts 311°
2026-05-06 16:03 40.29247 32.40362 19935 ft 382 kts 310°
2026-05-06 16:03 40.30943 32.37673 20477 ft 384 kts 310°
2026-05-06 16:04 40.32650 32.34966 21011 ft 386 kts 311°
2026-05-06 16:04 40.34363 32.32248 21537 ft 388 kts 311°
2026-05-06 16:04 40.36085 32.29519 22055 ft 390 kts 311°
2026-05-06 16:04 40.37818 32.26776 22581 ft 391 kts 311°
2026-05-06 16:05 40.39557 32.24021 23081 ft 393 kts 311°
2026-05-06 16:05 40.41302 32.21255 23548 ft 395 kts 311°
2026-05-06 16:05 40.43054 32.18472 23976 ft 396 kts 311°
2026-05-06 16:05 40.44812 32.15673 24349 ft 399 kts 311°
2026-05-06 16:06 40.46579 32.12857 24721 ft 401 kts 311°
2026-05-06 16:06 40.48346 32.10038 25099 ft 402 kts 311°
2026-05-06 16:06 40.50130 32.07194 25466 ft 404 kts 311°
2026-05-06 16:06 40.51890 32.04384 25836 ft 406 kts 311°
2026-05-06 16:07 40.53684 32.01512 26202 ft 407 kts 311°
2026-05-06 16:07 40.55485 31.98624 26578 ft 409 kts 311°
2026-05-06 16:07 40.57269 31.95766 26954 ft 410 kts 311°
2026-05-06 16:07 40.59082 31.92862 27322 ft 412 kts 311°
2026-05-06 16:08 40.60904 31.89939 27683 ft 413 kts 311°
2026-05-06 16:08 40.62726 31.87009 27999 ft 415 kts 311°
2026-05-06 16:08 40.66356 31.81156 28100 ft 409 kts 311°
2026-05-06 16:09 40.69956 31.75350 28104 ft 409 kts 311°
2026-05-06 16:09 40.73556 31.69543 28101 ft 409 kts 311°
2026-05-06 16:10 40.77152 31.63731 28103 ft 409 kts 311°
2026-05-06 16:10 40.80753 31.57906 28093 ft 410 kts 311°
2026-05-06 16:11 40.84356 31.52066 28109 ft 410 kts 311°
2026-05-06 16:11 40.87949 31.46208 27778 ft 411 kts 310°
2026-05-06 16:12 40.89642 31.43166 27427 ft 410 kts 303°
2026-05-06 16:12 40.90926 31.39809 26779 ft 410 kts 294°
2026-05-06 16:12 40.91795 31.36211 26140 ft 409 kts 289°
2026-05-06 16:12 40.92586 31.32616 25500 ft 407 kts 289°
2026-05-06 16:13 40.93385 31.29037 24887 ft 404 kts 289°
2026-05-06 16:13 40.94183 31.25484 24269 ft 402 kts 289°
2026-05-06 16:13 40.94981 31.21946 23660 ft 400 kts 289°
2026-05-06 16:13 40.95774 31.18425 23018 ft 397 kts 289°
2026-05-06 16:14 40.96556 31.14943 22455 ft 393 kts 289°
2026-05-06 16:14 40.97331 31.11499 21936 ft 388 kts 289°
2026-05-06 16:14 40.98094 31.08095 21421 ft 384 kts 289°
2026-05-06 16:14 40.98833 31.04760 21256 ft 371 kts 289°
2026-05-06 16:15 40.99543 31.01528 20995 ft 362 kts 289°
2026-05-06 16:15 41.00240 30.98353 20701 ft 357 kts 288°
2026-05-06 16:15 41.00911 30.95203 20375 ft 355 kts 288°
2026-05-06 16:15 41.01564 30.92059 19913 ft 353 kts 288°
2026-05-06 16:16 41.02211 30.88926 19463 ft 352 kts 288°
2026-05-06 16:16 41.02849 30.85826 19007 ft 351 kts 287°
2026-05-06 16:16 41.03493 30.82705 18546 ft 351 kts 287°
2026-05-06 16:16 41.04136 30.79595 18048 ft 350 kts 287°
2026-05-06 16:17 41.04775 30.76501 17726 ft 344 kts 287°
2026-05-06 16:17 41.05394 30.73499 17602 ft 332 kts 287°
2026-05-06 16:17 41.05806 30.70534 17427 ft 325 kts 275°
2026-05-06 16:17 41.05886 30.67562 17070 ft 322 kts 274°
2026-05-06 16:18 41.05954 30.64599 16690 ft 321 kts 274°
2026-05-06 16:18 41.06023 30.61646 16315 ft 320 kts 274°
2026-05-06 16:18 41.06092 30.58749 15963 ft 319 kts 274°
2026-05-06 16:18 41.06163 30.55819 15598 ft 318 kts 274°
2026-05-06 16:19 41.06231 30.52899 15234 ft 317 kts 274°
2026-05-06 16:19 41.06298 30.49985 14874 ft 316 kts 274°
2026-05-06 16:19 41.06364 30.47087 14558 ft 314 kts 274°
2026-05-06 16:19 41.06431 30.44195 14227 ft 313 kts 274°
2026-05-06 16:20 41.06495 30.41312 13863 ft 313 kts 274°
2026-05-06 16:20 41.06558 30.38444 13492 ft 312 kts 273°
2026-05-06 16:20 41.06623 30.35586 13199 ft 308 kts 274°
2026-05-06 16:20 41.06687 30.32751 12794 ft 308 kts 274°
2026-05-06 16:21 41.06749 30.29937 12525 ft 304 kts 273°
2026-05-06 16:21 41.06807 30.27147 12171 ft 303 kts 273°
2026-05-06 16:21 41.06864 30.24368 11820 ft 301 kts 273°
2026-05-06 16:21 41.06920 30.21603 11487 ft 299 kts 273°
2026-05-06 16:22 41.06889 30.18862 11144 ft 297 kts 267°
2026-05-06 16:22 41.06728 30.16142 10701 ft 295 kts 267°
2026-05-06 16:22 41.06570 30.13449 10301 ft 292 kts 267°
2026-05-06 16:22 41.06417 30.10776 9886 ft 289 kts 267°
2026-05-06 16:23 41.06266 30.08135 9530 ft 286 kts 267°
2026-05-06 16:23 41.06116 30.05521 9196 ft 283 kts 268°
2026-05-06 16:23 41.05967 30.02938 8875 ft 280 kts 267°
2026-05-06 16:23 41.05820 30.00378 8549 ft 277 kts 267°
2026-05-06 16:24 41.05673 29.97841 8240 ft 275 kts 267°
2026-05-06 16:24 41.05525 29.95325 7924 ft 273 kts 267°
2026-05-06 16:24 41.05377 29.92822 7613 ft 272 kts 267°
2026-05-06 16:24 41.05229 29.90335 7303 ft 270 kts 267°
2026-05-06 16:25 41.05082 29.87868 6993 ft 268 kts 267°
2026-05-06 16:25 41.04936 29.85417 6686 ft 266 kts 267°
2026-05-06 16:25 41.04792 29.82980 6376 ft 265 kts 266°
2026-05-06 16:25 41.04649 29.80588 6066 ft 263 kts 266°
2026-05-06 16:26 41.04503 29.78179 5763 ft 261 kts 266°
2026-05-06 16:26 41.04357 29.75794 5495 ft 256 kts 266°
2026-05-06 16:26 41.04216 29.73505 5377 ft 244 kts 266°
2026-05-06 16:26 41.04080 29.71316 5252 ft 233 kts 266°
2026-05-06 16:27 41.03738 29.69246 5049 ft 228 kts 251°
2026-05-06 16:27 41.03008 29.67378 4816 ft 229 kts 241°
2026-05-06 16:27 41.02188 29.65574 4466 ft 228 kts 241°
2026-05-06 16:27 41.01370 29.63769 4105 ft 228 kts 240°
2026-05-06 16:28 41.00557 29.61972 3748 ft 227 kts 240°
2026-05-06 16:28 40.99762 29.60215 3620 ft 218 kts 240°
2026-05-06 16:28 40.98996 29.58522 3524 ft 210 kts 240°
2026-05-06 16:28 40.98263 29.56901 3504 ft 202 kts 241°
2026-05-06 16:29 40.97644 29.55264 3519 ft 192 kts 245°
2026-05-06 16:29 40.97095 29.53757 3508 ft 171 kts 245°
2026-05-06 16:29 40.96602 29.52407 3520 ft 156 kts 245°
2026-05-06 16:29 40.96145 29.51154 3485 ft 149 kts 245°
2026-05-06 16:30 40.95701 29.49937 3333 ft 146 kts 245°
2026-05-06 16:30 40.95410 29.49142 3206 ft 145 kts 245°
2026-05-06 16:30 40.94825 29.47541 2924 ft 144 kts 244°
2026-05-06 16:30 40.94387 29.46344 2706 ft 145 kts 244°
2026-05-06 16:31 40.93948 29.45145 2485 ft 145 kts 244°
2026-05-06 16:31 40.93510 29.43948 2253 ft 145 kts 245°
2026-05-06 16:31 40.93070 29.42749 2026 ft 145 kts 245°
2026-05-06 16:31 40.92633 29.41556 1805 ft 145 kts 245°
2026-05-06 16:32 40.92194 29.40358 1573 ft 145 kts 245°
2026-05-06 16:32 40.91756 29.39164 1352 ft 144 kts 245°
2026-05-06 16:32 40.91318 29.37971 1099 ft 145 kts 245°
2026-05-06 16:32 40.90884 29.36765 884 ft 146 kts 245°
2026-05-06 16:33 40.90434 29.35544 654 ft 149 kts 245°
2026-05-06 16:33 40.89986 29.34334 415 ft 149 kts 245°
2026-05-06 16:33 40.89534 29.33115 296 ft 136 kts 244°
2026-05-06 16:34 40.88994 29.31637 300 ft 38 kts 245°
2026-05-06 16:34 40.88879 29.31313 297 ft 39 kts 244°
2026-05-06 16:34 40.88808 29.31043 294 ft 30 kts 263°
2026-05-06 16:34 40.88812 29.30829 291 ft 7 kts 274°
2026-05-06 16:35 40.88815 29.30773 289 ft 2 kts 274°
2026-05-06 16:35 40.88816 29.30747 289 ft 3 kts 273°
2026-05-06 16:35 40.88828 29.30714 292 ft 7 kts 321°
2026-05-06 16:35 40.88877 29.30756 292 ft 11 kts 62°
2026-05-06 16:36 40.88910 29.30841 295 ft 11 kts 63°
2026-05-06 16:36 40.88943 29.30926 297 ft 10 kts 63°
2026-05-06 16:36 40.88976 29.31017 299 ft 13 kts 66°
2026-05-06 16:36 40.89020 29.31148 299 ft 18 kts 65°
2026-05-06 16:37 40.89078 29.31297 304 ft 19 kts 64°
2026-05-06 16:37 40.89134 29.31427 300 ft 16 kts 36°
2026-05-06 16:37 40.89234 29.31444 301 ft 14 kts 37°
2026-05-06 16:37 40.89327 29.31446 301 ft 15 kts 335°
2026-05-06 16:38 40.89421 29.31386 304 ft 15 kts 334°
2026-05-06 16:38 40.89511 29.31328 309 ft 14 kts 334°
2026-05-06 16:38 40.89596 29.31273 310 ft 14 kts 334°
2026-05-06 16:38 40.89684 29.31215 311 ft 14 kts 334°
2026-05-06 16:39 40.89764 29.31152 311 ft 14 kts 319°
2026-05-06 16:39 40.89849 29.31086 311 ft 15 kts 334°
2026-05-06 16:39 40.89954 29.31039 311 ft 17 kts 339°
2026-05-06 16:39 40.90064 29.30969 311 ft 15 kts 334°
2026-05-06 16:40 40.90163 29.30905 311 ft 17 kts 334°
2026-05-06 16:40 40.90250 29.30900 311 ft 13 kts 48°
2026-05-06 16:40 40.90296 29.31019 311 ft 15 kts 64°
2026-05-06 16:40 40.90342 29.31144 310 ft 12 kts 64°
2026-05-06 16:41 40.90329 29.31202 311 ft 6 kts 153°
2026-05-06 16:41 40.90300 29.31220 311 ft 2 kts 154°
2026-05-06 16:41 40.90293 29.31225 311 ft 1 kts 154°
2026-05-06 16:41 40.90287 29.31229 311 ft 1 kts 154°
2026-05-06 16:42 40.90284 29.31231 311 ft 0 kts 154°